Time,TemperatureF,DewpointF,PressureIn,WindDirection,WindDirectionDegrees,WindSpeedMPH,WindSpeedGustMPH,Humidity,HourlyPrecipIn,Conditions,Clouds,dailyrainin,SoftwareType,DateUTC
2013-02-12 00:00:00,40.4,35.7,30.24,ESE,123,1.0,4.0,83,0.00,,---,0.00,VWS V14.00,2013-02-12 08:00:00,
2013-02-12 00:02:00,41.0,36.5,30.22,East,101,2.0,4.0,84,0.00,,---,0.00,VWS V14.00,2013-02-12 08:02:00,
2013-02-12 00:25:00,42.1,35.0,30.23,East,89,0.0,1.0,77,0.00,,,0.00,weatherlink.com 1.10,2013-02-12 08:25:00,
2013-02-12 00:30:00,39.6,34.6,30.23,ESE,107,5.0,6.0,82,0.00,,---,0.00,VWS V14.00,2013-02-12 08:30:00,
2013-02-12 00:32:00,42.2,35.8,30.23,ESE,105,0.0,3.0,78,0.00,,---,0.00,VWS V14.00,2013-02-12 08:32:00,
2013-02-12 00:43:00,40.9,36.0,30.23,ESE,118,0.0,2.0,82,0.00,,,0.00,weatherlink.com 1.10,2013-02-12 08:43:00,
2013-02-12 00:59:00,40.3,36.0,30.24,ESE,107,0.0,5.0,83,0.00,,,0.00,weatherlink.com 1.10,2013-02-12 08:59:00,
2013-02-12 01:00:00,38.7,33.4,30.23,ESE,106,3.0,7.0,81,0.00,,---,0.00,VWS V14.00,2013-02-12 09:00:00,
2013-02-12 01:02:00,40.4,35.7,30.24,ESE,123,1.0,4.0,83,0.00,,---,0.00,VWS V14.00,2013-02-12 09:02:00,
2013-02-12 01:17:00,40.5,35.0,30.23,ESE,110,2.0,3.0,80,0.00,,,0.00,weatherlink.com 1.10,2013-02-12 09:17:00,
2013-02-12 01:30:00,39.0,32.7,30.23,ESE,103,0.0,5.0,78,0.00,,---,0.00,VWS V14.00,2013-02-12 09:30:00,
2013-02-12 01:32:00,39.6,34.6,30.23,ESE,107,5.0,6.0,82,0.00,,---,0.00,VWS V14.00,2013-02-12 09:32:00,
2013-02-12 01:34:00,39.3,35.0,30.23,ESE,110,4.0,6.0,83,0.00,,,0.00,weatherlink.com 1.10,2013-02-12 09:34:00,
2013-02-12 01:51:00,38.3,34.0,30.23,SE,142,2.0,7.0,84,0.00,,,0.00,weatherlink.com 1.10,2013-02-12 09:51:00,
2013-02-12 02:00:00,37.9,31.7,30.23,ESE,108,1.0,5.0,78,0.00,,---,0.00,VWS V14.00,2013-02-12 10:00:00,
2013-02-12 02:02:00,38.7,33.4,30.23,ESE,106,3.0,7.0,81,0.00,,---,0.00,VWS V14.00,2013-02-12 10:02:00,
2013-02-12 02:09:00,38.9,33.0,30.23,East,101,3.0,5.0,80,0.00,,,0.00,weatherlink.com 1.10,2013-02-12 10:09:00,
2013-02-12 02:26:00,39.0,33.0,30.23,ESE,110,0.0,3.0,79,0.00,,,0.00,weatherlink.com 1.10,2013-02-12 10:26:00,
2013-02-12 02:30:00,36.6,31.0,30.23,East,100,1.0,7.0,80,0.00,,---,0.00,VWS V14.00,2013-02-12 10:30:00,
2013-02-12 02:32:00,39.0,32.7,30.23,ESE,103,0.0,5.0,78,0.00,,---,0.00,VWS V14.00,2013-02-12 10:32:00,
2013-02-12 02:43:00,38.7,32.0,30.23,ESE,105,1.0,4.0,77,0.00,,,0.00,weatherlink.com 1.10,2013-02-12 10:43:00,
2013-02-12 03:00:00,38.0,31.1,30.24,SE,131,2.0,3.0,76,0.00,,---,0.00,VWS V14.00,2013-02-12 11:00:00,
2013-02-12 03:01:00,37.9,32.0,30.23,ESE,117,3.0,4.0,78,0.00,,,0.00,weatherlink.com 1.10,2013-02-12 11:01:00,
2013-02-12 03:02:00,37.9,31.7,30.23,ESE,108,1.0,5.0,78,0.00,,---,0.00,VWS V14.00,2013-02-12 11:02:00,
2013-02-12 03:19:00,37.6,31.0,30.23,ESE,106,3.0,6.0,78,0.00,,,0.00,weatherlink.com 1.10,2013-02-12 11:19:00,
2013-02-12 03:30:00,39.3,30.7,30.25,ESE,113,2.0,6.0,71,0.00,,---,0.00,VWS V14.00,2013-02-12 11:30:00,
2013-02-12 03:32:00,36.6,31.0,30.23,East,100,1.0,7.0,80,0.00,,---,0.00,VWS V14.00,2013-02-12 11:32:00,
2013-02-12 03:35:00,36.6,31.0,30.23,ESE,109,1.0,3.0,79,0.00,,,0.00,weatherlink.com 1.10,2013-02-12 11:35:00,
2013-02-12 03:53:00,38.5,31.0,30.23,ESE,112,0.0,3.0,74,0.00,,,0.00,weatherlink.com 1.10,2013-02-12 11:53:00,
2013-02-12 04:00:00,37.3,29.8,30.25,ESE,121,1.0,7.0,74,0.00,,---,0.00,VWS V14.00,2013-02-12 12:00:00,
2013-02-12 04:02:00,38.0,31.1,30.24,SE,131,2.0,3.0,76,0.00,,---,0.00,VWS V14.00,2013-02-12 12:02:00,
2013-02-12 04:10:00,37.7,31.0,30.24,ESE,103,1.0,5.0,77,0.00,,,0.00,weatherlink.com 1.10,2013-02-12 12:10:00,
2013-02-12 04:27:00,39.0,31.0,30.24,East,101,1.0,3.0,72,0.00,,,0.00,weatherlink.com 1.10,2013-02-12 12:27:00,
2013-02-12 04:30:00,38.0,29.8,30.26,ESE,117,2.0,3.0,72,0.00,,---,0.00,VWS V14.00,2013-02-12 12:30:00,
2013-02-12 04:32:00,39.3,30.7,30.25,ESE,113,2.0,6.0,71,0.00,,---,0.00,VWS V14.00,2013-02-12 12:32:00,
2013-02-12 04:44:00,38.4,30.0,30.25,ESE,111,0.0,4.0,73,0.00,,,0.00,weatherlink.com 1.10,2013-02-12 12:44:00,
2013-02-12 05:00:00,37.1,29.6,30.27,ESE,105,2.0,4.0,74,0.00,,---,0.00,VWS V14.00,2013-02-12 13:00:00,
2013-02-12 05:02:00,37.3,30.0,30.25,ESE,121,1.0,5.0,74,0.00,,,0.00,weatherlink.com 1.10,2013-02-12 13:02:00,
2013-02-12 05:18:00,37.9,30.0,30.25,ESE,110,1.0,3.0,73,0.00,,,0.00,weatherlink.com 1.10,2013-02-12 13:18:00,
2013-02-12 05:30:00,37.4,29.5,30.28,ESE,115,1.0,3.0,73,0.00,,---,0.00,VWS V14.00,2013-02-12 13:30:00,
2013-02-12 05:32:00,38.0,29.8,30.26,ESE,117,2.0,3.0,72,0.00,,---,0.00,VWS V14.00,2013-02-12 13:32:00,
2013-02-12 05:53:00,37.3,29.0,30.27,ESE,119,2.0,4.0,73,0.00,,,0.00,weatherlink.com 1.10,2013-02-12 13:53:00,
2013-02-12 06:00:00,37.9,30.0,30.30,ESE,119,2.0,6.0,73,0.00,,---,0.00,VWS V14.00,2013-02-12 14:00:00,
2013-02-12 06:02:00,37.1,29.6,30.27,ESE,105,2.0,4.0,74,0.00,,---,0.00,VWS V14.00,2013-02-12 14:02:00,
2013-02-12 06:10:00,37.1,30.0,30.27,East,97,0.0,3.0,74,0.00,,,0.00,weatherlink.com 1.10,2013-02-12 14:10:00,
2013-02-12 06:28:00,37.5,30.0,30.27,ESE,110,1.0,3.0,73,0.00,,,0.00,weatherlink.com 1.10,2013-02-12 14:28:00,
2013-02-12 06:30:00,40.9,31.5,30.30,ESE,123,2.0,6.0,69,0.00,,---,0.00,VWS V14.00,2013-02-12 14:30:00,
2013-02-12 06:32:00,37.4,29.5,30.28,ESE,115,1.0,3.0,73,0.00,,---,0.00,VWS V14.00,2013-02-12 14:32:00,
2013-02-12 06:46:00,36.8,30.0,30.28,ESE,118,1.0,5.0,75,0.00,,,0.00,weatherlink.com 1.10,2013-02-12 14:46:00,
2013-02-12 07:00:00,44.3,32.5,30.32,ESE,103,2.0,6.0,63,0.00,,---,0.00,VWS V14.00,2013-02-12 15:00:00,
2013-02-12 07:02:00,37.9,30.0,30.30,ESE,119,1.0,4.0,73,0.00,,,0.00,weatherlink.com 1.10,2013-02-12 15:02:00,
2013-02-12 07:20:00,38.9,31.0,30.30,ESE,107,1.0,5.0,72,0.00,,,0.00,weatherlink.com 1.10,2013-02-12 15:20:00,
2013-02-12 07:30:00,48.0,35.2,30.32,ESE,105,2.0,5.0,61,0.00,,---,0.00,VWS V14.00,2013-02-12 15:30:00,
2013-02-12 07:32:00,40.9,31.5,30.30,ESE,123,2.0,6.0,69,0.00,,---,0.00,VWS V14.00,2013-02-12 15:32:00,
2013-02-12 07:37:00,41.8,32.0,30.30,ESE,105,1.0,4.0,67,0.00,,,0.00,weatherlink.com 1.10,2013-02-12 15:37:00,
2013-02-12 07:54:00,43.4,33.0,30.31,ESE,111,1.0,5.0,67,0.00,,,0.00,weatherlink.com 1.10,2013-02-12 15:54:00,
2013-02-12 08:00:00,52.1,35.5,30.33,SE,128,3.0,5.0,53,0.00,,---,0.00,VWS V14.00,2013-02-12 16:00:00,
2013-02-12 08:02:00,44.3,32.5,30.32,ESE,103,2.0,6.0,63,0.00,,---,0.00,VWS V14.00,2013-02-12 16:02:00,
2013-02-12 08:11:00,45.6,34.0,30.32,ESE,105,5.0,5.0,64,0.00,,,0.00,weatherlink.com 1.10,2013-02-12 16:11:00,
2013-02-12 08:29:00,47.5,35.0,30.32,ESE,114,3.0,4.0,62,0.00,,,0.00,weatherlink.com 1.10,2013-02-12 16:29:00,
2013-02-12 08:30:00,54.8,38.0,30.33,ESE,111,2.0,4.0,53,0.00,,---,0.00,VWS V14.00,2013-02-12 16:30:00,
2013-02-12 08:32:00,48.0,35.2,30.32,ESE,105,2.0,5.0,61,0.00,,---,0.00,VWS V14.00,2013-02-12 16:32:00,
2013-02-12 08:46:00,50.8,36.0,30.32,ESE,120,2.0,5.0,57,0.00,,,0.00,weatherlink.com 1.10,2013-02-12 16:46:00,
2013-02-12 09:00:00,57.0,42.8,30.33,West,266,2.0,4.0,59,0.00,,---,0.00,VWS V14.00,2013-02-12 17:00:00,
2013-02-12 09:02:00,52.1,35.5,30.33,SE,128,3.0,5.0,53,0.00,,---,0.00,VWS V14.00,2013-02-12 17:02:00,
2013-02-12 09:04:00,52.1,35.0,30.33,ESE,122,0.0,5.0,53,0.00,,,0.00,weatherlink.com 1.10,2013-02-12 17:04:00,
2013-02-12 09:20:00,54.1,37.0,30.33,SSE,161,0.0,2.0,53,0.00,,,0.00,weatherlink.com 1.10,2013-02-12 17:20:00,
2013-02-12 09:30:00,54.9,44.9,30.33,NW,321,1.0,8.0,69,0.00,,---,0.00,VWS V14.00,2013-02-12 17:30:00,
2013-02-12 09:32:00,54.8,38.0,30.33,ESE,111,2.0,4.0,53,0.00,,---,0.00,VWS V14.00,2013-02-12 17:32:00,
2013-02-12 09:38:00,55.4,38.0,30.33,SSE,155,0.0,4.0,53,0.00,,,0.00,weatherlink.com 1.10,2013-02-12 17:38:00,
2013-02-12 09:56:00,55.4,43.0,30.33,SE,138,2.0,4.0,63,0.00,,,0.00,weatherlink.com 1.10,2013-02-12 17:56:00,
2013-02-12 10:00:00,55.0,45.4,30.33,NW,315,4.0,9.0,70,0.00,,---,0.00,VWS V14.00,2013-02-12 18:00:00,
2013-02-12 10:02:00,57.0,42.8,30.33,West,266,2.0,4.0,59,0.00,,---,0.00,VWS V14.00,2013-02-12 18:02:00,
2013-02-12 10:12:00,55.3,42.0,30.33,NNW,327,1.0,5.0,62,0.00,,,0.00,weatherlink.com 1.10,2013-02-12 18:12:00,
2013-02-12 10:30:00,55.1,45.0,30.34,West,269,4.0,8.0,70,0.00,,,0.00,weatherlink.com 1.10,2013-02-12 18:30:00,
2013-02-12 10:32:00,54.9,44.9,30.33,NW,321,1.0,8.0,69,0.00,,---,0.00,VWS V14.00,2013-02-12 18:32:00,
2013-02-12 10:48:00,55.4,45.0,30.33,West,281,4.0,7.0,69,0.00,,,0.00,weatherlink.com 1.10,2013-02-12 18:48:00,
2013-02-12 11:00:00,54.4,45.2,30.30,WNW,294,7.0,12.0,71,0.00,,---,0.00,VWS V14.00,2013-02-12 19:00:00,
2013-02-12 11:02:00,55.0,45.4,30.33,NW,315,4.0,9.0,70,0.00,,---,0.00,VWS V14.00,2013-02-12 19:02:00,
2013-02-12 11:22:00,54.5,45.0,30.32,WSW,244,7.0,9.0,71,0.00,,,0.00,weatherlink.com 1.10,2013-02-12 19:22:00,
2013-02-12 11:30:00,55.1,45.5,30.28,WSW,254,6.0,15.0,70,0.00,,---,0.00,VWS V14.00,2013-02-12 19:30:00,
2013-02-12 11:32:00,55.1,45.5,30.31,WNW,285,7.0,9.0,70,0.00,,---,0.00,VWS V14.00,2013-02-12 19:32:00,
2013-02-12 11:40:00,54.9,45.0,30.31,WSW,242,9.0,12.0,69,0.00,,,0.00,weatherlink.com 1.10,2013-02-12 19:40:00,
2013-02-12 11:57:00,54.7,45.0,30.31,WSW,257,10.0,11.0,71,0.00,,,0.00,weatherlink.com 1.10,2013-02-12 19:57:00,
2013-02-12 12:00:00,54.9,45.3,30.27,WNW,286,7.0,14.0,70,0.00,,---,0.00,VWS V14.00,2013-02-12 20:00:00,
2013-02-12 12:02:00,54.4,45.2,30.30,WNW,294,7.0,12.0,71,0.00,,---,0.00,VWS V14.00,2013-02-12 20:02:00,
2013-02-12 12:14:00,54.8,45.0,30.30,WNW,302,9.0,12.0,70,0.00,,,0.00,weatherlink.com 1.10,2013-02-12 20:14:00,
2013-02-12 12:30:00,54.4,45.2,30.27,West,279,9.0,14.0,71,0.00,,---,0.00,VWS V14.00,2013-02-12 20:30:00,
2013-02-12 12:32:00,55.0,45.0,30.29,West,275,7.0,15.0,70,0.00,,,0.00,weatherlink.com 1.10,2013-02-12 20:32:00,
2013-02-12 12:49:00,55.0,45.0,30.28,West,267,3.0,14.0,68,0.00,,,0.00,weatherlink.com 1.10,2013-02-12 20:49:00,
2013-02-12 13:00:00,54.6,46.5,30.25,West,273,4.0,14.0,74,0.00,,---,0.00,VWS V14.00,2013-02-12 21:00:00,
2013-02-12 13:02:00,54.9,45.3,30.27,WNW,286,7.0,14.0,70,0.00,,---,0.00,VWS V14.00,2013-02-12 21:02:00,
2013-02-12 13:23:00,54.7,45.0,30.27,WNW,292,13.0,14.0,70,0.00,,,0.00,weatherlink.com 1.10,2013-02-12 21:23:00,
2013-02-12 13:30:00,54.6,47.2,30.25,West,260,10.0,15.0,76,0.00,,---,0.00,VWS V14.00,2013-02-12 21:30:00,
2013-02-12 13:32:00,54.4,45.2,30.27,West,279,9.0,14.0,71,0.00,,---,0.00,VWS V14.00,2013-02-12 21:32:00,
2013-02-12 13:41:00,54.5,46.0,30.27,West,279,9.0,14.0,74,0.00,,,0.00,weatherlink.com 1.10,2013-02-12 21:41:00,
2013-02-12 13:59:00,55.1,47.0,30.26,WNW,302,10.0,13.0,73,0.00,,,0.00,weatherlink.com 1.10,2013-02-12 21:59:00,
2013-02-12 14:00:00,55.3,48.2,30.25,West,278,8.0,14.0,77,0.00,,---,0.00,VWS V14.00,2013-02-12 22:00:00,
2013-02-12 14:02:00,54.6,46.5,30.25,West,273,4.0,14.0,74,0.00,,---,0.00,VWS V14.00,2013-02-12 22:02:00,
2013-02-12 14:15:00,55.3,47.0,30.25,WNW,288,10.0,14.0,74,0.00,,,0.00,weatherlink.com 1.10,2013-02-12 22:15:00,
2013-02-12 14:30:00,55.5,47.4,30.25,NNW,328,10.0,13.0,74,0.00,,---,0.00,VWS V14.00,2013-02-12 22:30:00,
2013-02-12 14:32:00,54.6,47.2,30.25,West,260,10.0,15.0,76,0.00,,---,0.00,VWS V14.00,2013-02-12 22:32:00,
2013-02-12 14:33:00,54.6,47.0,30.25,West,276,11.0,14.0,76,0.00,,,0.00,weatherlink.com 1.10,2013-02-12 22:33:00,
2013-02-12 14:51:00,54.9,48.0,30.25,NW,314,8.0,13.0,77,0.00,,,0.00,weatherlink.com 1.10,2013-02-12 22:51:00,
2013-02-12 15:00:00,55.6,47.8,30.25,WNW,291,9.0,12.0,75,0.00,,---,0.00,VWS V14.00,2013-02-12 23:00:00,
2013-02-12 15:02:00,55.3,48.2,30.25,West,278,8.0,14.0,77,0.00,,---,0.00,VWS V14.00,2013-02-12 23:02:00,
2013-02-12 15:09:00,54.7,48.0,30.25,SW,235,6.0,13.0,79,0.00,,,0.00,weatherlink.com 1.10,2013-02-12 23:09:00,
2013-02-12 15:25:00,55.5,48.0,30.25,WSW,245,3.0,12.0,77,0.00,,,0.00,weatherlink.com 1.10,2013-02-12 23:25:00,
2013-02-12 15:30:00,55.4,47.3,30.25,WNW,286,9.0,11.0,74,0.00,,---,0.00,VWS V14.00,2013-02-12 23:30:00,
2013-02-12 15:33:00,55.5,47.4,30.25,NNW,328,10.0,13.0,74,0.00,,---,0.00,VWS V14.00,2013-02-12 23:33:00,
2013-02-12 15:43:00,55.8,48.0,30.25,NW,321,7.0,11.0,74,0.00,,,0.00,weatherlink.com 1.10,2013-02-12 23:43:00,
2013-02-12 16:00:00,54.6,47.2,30.25,West,275,6.0,10.0,76,0.00,,---,0.00,VWS V14.00,2013-02-13 00:00:00,
2013-02-12 16:01:00,55.7,48.0,30.25,WNW,283,6.0,12.0,75,0.00,,,0.00,weatherlink.com 1.10,2013-02-13 00:01:00,
2013-02-12 16:02:00,55.6,47.8,30.25,WNW,291,9.0,12.0,75,0.00,,---,0.00,VWS V14.00,2013-02-13 00:02:00,
2013-02-12 16:17:00,55.8,46.0,30.25,West,266,7.0,11.0,70,0.00,,,0.00,weatherlink.com 1.10,2013-02-13 00:17:00,
2013-02-12 16:30:00,54.2,43.1,30.25,NW,310,1.0,7.0,66,0.00,,---,0.00,VWS V14.00,2013-02-13 00:30:00,
2013-02-12 16:32:00,55.4,47.3,30.25,WNW,286,9.0,11.0,74,0.00,,---,0.00,VWS V14.00,2013-02-13 00:32:00,
2013-02-12 16:35:00,55.2,47.0,30.25,WNW,289,6.0,11.0,75,0.00,,,0.00,weatherlink.com 1.10,2013-02-13 00:35:00,
2013-02-12 16:53:00,54.8,47.0,30.25,WNW,284,9.0,10.0,75,0.00,,,0.00,weatherlink.com 1.10,2013-02-13 00:53:00,
2013-02-12 17:00:00,53.8,40.3,30.25,NNW,331,4.0,7.0,60,0.00,,---,0.00,VWS V14.00,2013-02-13 01:00:00,
2013-02-12 17:02:00,54.6,47.2,30.25,West,275,6.0,10.0,76,0.00,,---,0.00,VWS V14.00,2013-02-13 01:02:00,
2013-02-12 17:09:00,54.6,46.0,30.25,WNW,290,4.0,7.0,74,0.00,,,0.00,weatherlink.com 1.10,2013-02-13 01:09:00,
2013-02-12 17:27:00,54.5,42.0,30.25,NW,311,5.0,6.0,64,0.00,,,0.00,weatherlink.com 1.10,2013-02-13 01:27:00,
2013-02-12 17:30:00,53.5,39.1,30.25,North,9,4.0,7.0,58,0.00,,---,0.00,VWS V14.00,2013-02-13 01:30:00,
2013-02-12 17:32:00,54.2,43.1,30.25,NW,310,1.0,7.0,66,0.00,,---,0.00,VWS V14.00,2013-02-13 01:32:00,
2013-02-12 17:44:00,53.7,43.0,30.25,NNW,331,4.0,6.0,68,0.00,,,0.00,weatherlink.com 1.10,2013-02-13 01:44:00,
2013-02-12 18:00:00,52.3,39.7,30.25,NNW,332,3.0,7.0,62,0.00,,---,0.00,VWS V14.00,2013-02-13 02:00:00,
2013-02-12 18:01:00,53.7,40.0,30.25,NNW,331,3.0,7.0,60,0.00,,,0.00,weatherlink.com 1.10,2013-02-13 02:01:00,
2013-02-12 18:02:00,53.8,40.3,30.25,NNW,331,4.0,7.0,60,0.00,,---,0.00,VWS V14.00,2013-02-13 02:02:00,
2013-02-12 18:19:00,53.3,37.0,30.25,NNW,333,2.0,5.0,55,0.00,,,0.00,weatherlink.com 1.10,2013-02-13 02:19:00,
2013-02-12 18:30:00,52.5,37.7,30.26,NNE,28,0.0,5.0,57,0.00,,---,0.00,VWS V14.00,2013-02-13 02:30:00,
2013-02-12 18:32:00,53.5,39.1,30.25,North,9,4.0,7.0,58,0.00,,---,0.00,VWS V14.00,2013-02-13 02:32:00,
2013-02-12 18:53:00,52.5,40.0,30.25,NW,316,3.0,5.0,62,0.00,,,0.00,weatherlink.com 1.10,2013-02-13 02:53:00,
2013-02-12 19:00:00,50.8,39.1,30.27,SE,136,1.0,2.0,64,0.00,,---,0.00,VWS V14.00,2013-02-13 03:00:00,
2013-02-12 19:02:00,52.3,39.7,30.25,NNW,332,3.0,7.0,62,0.00,,---,0.00,VWS V14.00,2013-02-13 03:02:00,
2013-02-12 19:10:00,52.5,38.0,30.25,NNW,335,3.0,5.0,58,0.00,,,0.00,weatherlink.com 1.10,2013-02-13 03:10:00,
2013-02-12 19:28:00,52.5,37.0,30.25,North,355,1.0,4.0,56,0.00,,,0.00,weatherlink.com 1.10,2013-02-13 03:28:00,
2013-02-12 19:30:00,49.6,40.2,30.27,SE,126,2.0,3.0,70,0.00,,---,0.00,VWS V14.00,2013-02-13 03:30:00,
2013-02-12 19:32:00,52.5,37.7,30.26,NNE,28,0.0,5.0,57,0.00,,---,0.00,VWS V14.00,2013-02-13 03:32:00,
2013-02-12 19:45:00,51.7,38.0,30.26,WNW,287,1.0,2.0,59,0.00,,,0.00,weatherlink.com 1.10,2013-02-13 03:45:00,
2013-02-12 20:00:00,47.6,40.1,30.27,ESE,114,0.0,3.0,75,0.00,,---,0.00,VWS V14.00,2013-02-13 04:00:00,
2013-02-12 20:02:00,50.8,38.0,30.27,SE,136,0.0,3.0,63,0.00,,,0.00,weatherlink.com 1.10,2013-02-13 04:02:00,
2013-02-12 20:19:00,50.6,40.0,30.27,East,94,0.0,2.0,68,0.00,,,0.00,weatherlink.com 1.10,2013-02-13 04:19:00,
2013-02-12 20:30:00,46.7,39.9,30.27,East,95,0.0,3.0,77,0.00,,---,0.00,VWS V14.00,2013-02-13 04:30:00,
2013-02-12 20:32:00,49.6,40.2,30.27,SE,126,2.0,3.0,70,0.00,,---,0.00,VWS V14.00,2013-02-13 04:32:00,
2013-02-12 20:36:00,49.3,40.0,30.27,SE,132,0.0,3.0,71,0.00,,,0.00,weatherlink.com 1.10,2013-02-13 04:36:00,
2013-02-12 20:53:00,48.3,40.0,30.27,ESE,115,0.0,2.0,74,0.00,,,0.00,weatherlink.com 1.10,2013-02-13 04:53:00,
2013-02-12 21:00:00,44.3,38.8,30.27,East,101,2.0,3.0,81,0.00,,---,0.00,VWS V14.00,2013-02-13 05:00:00,
2013-02-12 21:02:00,47.6,40.1,30.27,ESE,114,0.0,3.0,75,0.00,,---,0.00,VWS V14.00,2013-02-13 05:02:00,
2013-02-12 21:11:00,47.8,40.0,30.27,East,84,0.0,2.0,75,0.00,,,0.00,weatherlink.com 1.10,2013-02-13 05:11:00,
2013-02-12 21:28:00,46.9,40.0,30.27,SE,131,0.0,3.0,76,0.00,,,0.00,weatherlink.com 1.10,2013-02-13 05:28:00,
2013-02-12 21:30:00,43.1,38.3,30.27,SE,130,0.0,3.0,83,0.00,,---,0.00,VWS V14.00,2013-02-13 05:30:00,
2013-02-12 21:32:00,46.7,39.9,30.27,East,95,0.0,3.0,77,0.00,,---,0.00,VWS V14.00,2013-02-13 05:32:00,
2013-02-12 21:45:00,46.7,40.0,30.27,SE,130,1.0,3.0,77,0.00,,,0.00,weatherlink.com 1.10,2013-02-13 05:45:00,
2013-02-12 22:00:00,42.0,37.8,30.26,ESE,107,4.0,5.0,85,0.00,,---,0.00,VWS V14.00,2013-02-13 06:00:00,
2013-02-12 22:02:00,44.3,39.0,30.27,East,91,1.0,3.0,81,0.00,,,0.00,weatherlink.com 1.10,2013-02-13 06:02:00,
2013-02-12 22:20:00,43.6,38.0,30.27,East,98,1.0,3.0,82,0.00,,,0.00,weatherlink.com 1.10,2013-02-13 06:20:00,
2013-02-12 22:30:00,41.7,37.2,30.26,ESE,106,2.0,6.0,84,0.00,,---,0.00,VWS V14.00,2013-02-13 06:30:00,
2013-02-12 22:32:00,43.1,38.3,30.27,SE,130,0.0,3.0,83,0.00,,---,0.00,VWS V14.00,2013-02-13 06:32:00,
2013-02-12 22:36:00,43.0,38.0,30.27,SE,125,2.0,3.0,83,0.00,,,0.00,weatherlink.com 1.10,2013-02-13 06:36:00,
2013-02-12 22:54:00,42.7,38.0,30.26,ESE,103,2.0,5.0,83,0.00,,,0.00,weatherlink.com 1.10,2013-02-13 06:54:00,
2013-02-12 23:00:00,43.5,37.8,30.25,ESE,121,1.0,3.0,80,0.00,,---,0.00,VWS V14.00,2013-02-13 07:00:00,
2013-02-12 23:02:00,42.0,37.8,30.26,ESE,107,4.0,5.0,85,0.00,,---,0.00,VWS V14.00,2013-02-13 07:02:00,
2013-02-12 23:11:00,41.4,37.0,30.26,East,100,2.0,5.0,84,0.00,,,0.00,weatherlink.com 1.10,2013-02-13 07:11:00,
2013-02-12 23:28:00,41.9,37.0,30.25,ESE,113,3.0,5.0,83,0.00,,,0.00,weatherlink.com 1.10,2013-02-13 07:28:00,
2013-02-12 23:30:00,41.6,36.5,30.25,ESE,113,1.0,5.0,82,0.00,,---,0.00,VWS V14.00,2013-02-13 07:30:00,
2013-02-12 23:32:00,41.7,37.2,30.26,ESE,106,2.0,6.0,84,0.00,,---,0.00,VWS V14.00,2013-02-13 07:32:00,
2013-02-12 23:46:00,42.2,38.0,30.26,ESE,107,0.0,3.0,84,0.00,,,0.00,weatherlink.com 1.10,2013-02-13 07:46:00,